This is the latest recevied weather packets stored in our database for station/object KC4JES. If no packets are shown the sender has not sent any weather packets the latest 10 day(s).
| Time | Temp. | Humidity | Pressure | Rain* | Wind** | Luminosity | Snow |
|---|---|---|---|---|---|---|---|
| 1777649945 | 26.67° C | 68% | 1013 hPa | 0 mm | - | 109 W/m² | - |
| 1777649642 | 26.67° C | 75% | 1013.1 hPa | 0 mm | - | 193 W/m² | - |
| 1777649337 | 26.67° C | 76% | 1013.2 hPa | 0 mm | - | 178 W/m² | - |
| 1777649035 | 26.11° C | 74% | 1013.1 hPa | 0 mm | - | 175 W/m² | - |
| 1777648733 | 26.11° C | 75% | 1013 hPa | 0 mm | - | 210 W/m² | - |
| 1777648429 | 26.11° C | 71% | 1013.1 hPa | 0 mm | - | 216 W/m² | - |
| 1777648125 | 26.67° C | 74% | 1013.1 hPa | 0 mm | - | 199 W/m² | - |
| 1777647821 | 26.67° C | 77% | 1013 hPa | 0 mm | - | 217 W/m² | - |
| 1777647518 | 26.11° C | 81% | 1013.1 hPa | 0 mm | - | 214 W/m² | - |
| 1777647215 | 25.56° C | 80% | 1013.1 hPa | 0 mm | - | 173 W/m² | - |
| 1777646912 | 25.56° C | 81% | 1013 hPa | 0 mm | - | 165 W/m² | - |
| 1777646607 | 25.56° C | 83% | 1012.9 hPa | 0 mm | - | 156 W/m² | - |
| 1777646304 | 25.56° C | 82% | 1012.7 hPa | 0 mm | - | 212 W/m² | - |
| 1777646001 | 25° C | 84% | 1012.7 hPa | 0 mm | - | 107 W/m² | - |
| 1777645698 | 25° C | 84% | 1012.9 hPa | 0 mm | - | 154 W/m² | - |
| 1777645394 | 25° C | 85% | 1013.1 hPa | 0 mm | - | 171 W/m² | - |
| 1777645090 | 24.44° C | 88% | 1013.3 hPa | 0 mm | - | 197 W/m² | - |
| 1777644786 | 24.44° C | 88% | 1013.1 hPa | 0 mm | - | 129 W/m² | - |
| 1777644484 | 24.44° C | 89% | 1013.2 hPa | 0 mm | - | 141 W/m² | - |
| 1777644180 | 23.89° C | 88% | 1012.8 hPa | 0 mm | - | 167 W/m² | - |
| 1777643877 | 23.89° C | 89% | 1012.6 hPa | 0 mm | - | 150 W/m² | - |
| 1777643575 | 23.89° C | 89% | 1012.6 hPa | 0 mm | - | 152 W/m² | - |
| 1777643271 | 23.89° C | 89% | 1012.6 hPa | 0 mm | - | 155 W/m² | - |
| 1777642968 | 23.33° C | 90% | 1012.9 hPa | 0 mm | - | 136 W/m² | - |
| 1777642664 | 23.33° C | 91% | 1012.9 hPa | 0 mm | - | 122 W/m² | - |
* Rain latest hour (hover to see other rain measurements)
** Current wind speed in m/s (hover to see current wind gust speed)